This is the latest recevied weather packets stored in our database for station/object KB1FFS. If no packets are shown the sender has not sent any weather packets the latest 10 day(s).
| Time | Temp. | Humidity | Pressure | Rain* | Wind** | Luminosity | Snow |
|---|---|---|---|---|---|---|---|
| 1777774589 | 20° C | 53% | 1020.2 hPa | 0 mm | - | 0 W/m² | - |
| 1777774285 | 20° C | 52% | 1020.2 hPa | 0 mm | - | 0 W/m² | - |
| 1777773982 | 20° C | 51% | 1020.2 hPa | 0 mm | - | 0 W/m² | - |
| 1777773680 | 20.56° C | 51% | 1020.1 hPa | 0 mm | - | 0 W/m² | - |
| 1777773376 | 20.56° C | 50% | 1020.1 hPa | 0 mm | - | 0 W/m² | - |
| 1777770650 | 22.22° C | 46% | 1019.7 hPa | 0 mm | - | 3 W/m² | - |
| 1777768226 | 23.89° C | 38% | 1019.6 hPa | 0 mm | - | 26 W/m² | - |
| 1777766104 | 27.22° C | 32% | 1019.8 hPa | 0 mm | - | 136 W/m² | - |
| 1777764896 | 27.22° C | 31% | 1019.9 hPa | 0 mm | - | 213 W/m² | - |
| 1777761563 | 27.78° C | 31% | 1020.1 hPa | 0 mm | - | 452 W/m² | - |
| 1777761261 | 28.33° C | 31% | 1020.3 hPa | 0 mm | - | 459 W/m² | - |
| 1777760959 | 28.33° C | 32% | 1020.1 hPa | 0 mm | - | 475 W/m² | - |
| 1777760053 | 28.89° C | 32% | 1020.3 hPa | 0 mm | - | 519 W/m² | - |
| 1777759750 | 28.33° C | 32% | 1020.3 hPa | 0 mm | - | 558 W/m² | - |
| 1777759446 | 27.78° C | 33% | 1020.1 hPa | 0 mm | - | 587 W/m² | - |
| 1777759143 | 27.78° C | 33% | 1020.4 hPa | 0 mm | - | 592 W/m² | - |
| 1777758840 | 27.78° C | 34% | 1020.4 hPa | 0 mm | - | 402 W/m² | - |
| 1777758537 | 27.78° C | 34% | 1020.2 hPa | 0 mm | - | 630 W/m² | - |
| 1777757931 | 27.78° C | 32% | 1020.5 hPa | 0 mm | - | 650 W/m² | - |
| 1777757628 | 27.78° C | 31% | 1020.4 hPa | 0 mm | - | 687 W/m² | - |
| 1777757327 | 27.22° C | 35% | 1020.7 hPa | 0 mm | - | 727 W/m² | - |
| 1777757025 | 28.33° C | 32% | 1020.8 hPa | 0 mm | - | 122 W/m² | - |
| 1777756722 | 28.33° C | 34% | 1020.7 hPa | 0 mm | - | 714 W/m² | - |
| 1777756417 | 27.78° C | 30% | 1020.8 hPa | 0 mm | - | 734 W/m² | - |
| 1777756115 | 27.22° C | 37% | 1021 hPa | 0 mm | - | 736 W/m² | - |
* Rain latest hour (hover to see other rain measurements)
** Current wind speed in m/s (hover to see current wind gust speed)